Voltar ao catálogo

FENGYUN 1C DEB

AtivoPO
NORAD 30632·DEBRIS·🇨🇳 China

Lançado May 10, 1999 de Taiyuan Satellite Launch Center

Loading…

Próximas Passagens (próximas 24 horas)

TLE

AtualizadoSource: Space-Track

Época: Sep 14, 2026, 05:19 UTC

1 30632U 99025ANP 26257.22186575  .00010182  00000-0  15725-2 0  9991
2 30632  98.8364  55.4986 0013864  33.0796 139.6911 14.73479310 17345

Acompanhe FENGYUN 1C DEB em tempo real com AllMySat

Download on the App Store